Wind_Speed
20 18 16 18 19 18 17 16 17 15 13 12 10 10 12 11 10 10 11 7 6 8 9 7 7 8 10 10 10 11 18 15 8 14 8 6 7 9 9 8 13 9 12
19 19 19 19 18 19 19 18 17 19 16 13 14 13 12 12 10 9 10 13 11 9 11 10 10 11 14 14 14 15 17 19 13 13 14 17 13 12 11 10 11 12 13
17 20 20 20 20 19 19 18 17 18 18 17 17 15 16 12 12 12 11 11 12 13 13 12 14 15 15 16 13 13 14 14 15 15 17 15 15 12 10 11 12 12 11
16 18 18 19 19 19 18 19 19 19 19 18 16 16 15 13 13 13 14 13 13 14 14 14 15 16 17 17 18 17 17 17 15 15 17 18 16 15 11 11 12 13 14
16 15 17 18 18 18 16 17 18 17 19 18 18 17 15 14 16 17 14 14 13 14 14 14 16 18 19 19 19 19 18 17 17 17 17 20 15 16 14 13 14 15 16
18 17 16 16 16 17 18 18 19 20 20 20 20 17 15 16 16 14 15 14 13 13 14 15 17 19 21 22 22 25 28 23 18 20 21 20 18 17 15 17 16 14 14
21 19 17 18 18 17 16 20 22 23 22 22 21 20 19 18 19 15 17 16 16 16 16 16 16 18 16 16 17 19 21 23 27 29 24 25 23 21 20 19 22 20 19
18 19 19 19 19 18 18 19 19 20 20 19 20 20 19 18 20 21 21 16 15 15 16 16 17 19 17 18 16 19 20 21 23 27 30 34 30 26 24 22 22 22 22
17 19 20 22 21 21 20 20 20 19 18 20 19 19 18 15 19 19 16 11 14 13 12 13 14 15 17 22 20 20 24 26 26 28 30 31 31 28 28 21 20 19 19
17 19 20 22 23 23 23 22 22 21 21 20 19 18 18 17 16 12 10 9 11 11 9 11 14 15 20 22 19 16 20 23 22 22 24 25 24 31 34 32 28 24 21
16 19 20 22 23 23 23 22 22 22 20 21 19 17 13 14 17 13 12 8 7 8 8 9 6 10 15 19 21 17 21 22 24 25 24 23 24 26 27 26 22 28 25
13 13 18 21 22 23 24 24 24 23 22 21 19 18 16 11 13 14 11 10 7 4 6 7 8 16 18 18 16 14 15 17 18 21 22 23 23 24 20 15 18 19 24
13 15 17 18 23 24 24 24 23 23 23 23 19 18 17 13 11 14 11 8 5 2 4 8 9 12 12 14 12 16 15 12 14 16 18 20 21 21 20 19 19 20 19
14 14 16 19 22 24 25 28 27 25 22 18 20 19 17 15 14 13 13 8 4 2 4 3 5 8 9 13 14 12 12 13 16 18 19 22 20 16 13 13 13 14 14
14 15 11 7 6 8 9 10 19 15 18 21 20 18 17 17 17 16 13 10 8 7 3 2 3 8 12 12 13 12 12 12 14 13 15 14 10 8 9 11 11 10 11
14 15 13 8 9 10 6 4 2 15 15 18 17 16 11 13 19 21 15 10 7 5 4 2 2 6 9 11 13 13 11 13 13 11 10 11 10 9 10 10 9 9 10
18 15 15 9 13 10 6 6 7 11 14 15 16 17 12 16 17 16 13 10 6 7 9 2 2 5 6 8 11 11 11 11 11 10 9 9 8 9 9 9 11 9 9
20 16 15 16 12 13 11 10 9 9 11 11 13 13 15 16 16 15 13 12 10 11 13 2 2 3 3 5 7 11 11 12 10 10 8 7 8 8 8 7 8 7 8
22 20 17 15 14 9 11 13 13 14 15 15 15 17 18 19 17 15 14 16 14 8 6 3 1 1 2 3 3 6 8 8 8 9 7 7 8 7 7 7 6 5 5
25 21 17 15 13 11 14 16 17 16 16 18 19 21 18 20 15 14 16 14 13 10 5 3 1 1 1 2 3 4 2 3 5 4 6 8 8 8 8 7 7 7 6
24 23 25 18 19 17 15 18 17 15 18 20 21 24 23 21 18 18 18 16 12 9 6 3 1 2 3 2 5 5 5 7 8 7 5 5 3 5 5 5 7 7 7
25 26 21 17 19 18 16 19 19 21 17 19 22 22 27 25 19 20 16 13 13 8 4 4 5 3 1 1 2 4 5 6 7 8 9 9 8 10 9 7 3 1 3
24 24 20 18 17 15 18 19 18 24 24 22 18 25 33 22 18 16 15 14 12 10 8 7 6 5 5 2 1 1 3 5 6 7 9 10 11 9 11 10 9 8 8
26 25 20 16 17 18 18 19 18 19 20 22 19 23 24 19 18 20 17 13 12 11 10 8 8 4 4 4 4 4 2 5 4 9 8 9 12 12 13 15 16 15 13
25 24 18 17 17 18 19 19 18 24 23 24 27 27 21 20 19 18 13 11 10 11 11 7 10 10 6 4 4 6 8 10 13 15 14 13 14 16 18 19 17 19 16
23 26 12 13 16 19 20 20 23 24 19 19 16 14 18 19 14 12 14 12 11 12 12 11 7 6 4 2 4 5 6 7 9 9 11 9 13 15 17 18 18 19 17
Wind_Direction
203 204 207 197 203 210 212 203 217 228 210 222 217 227 235 237 226 236 246 230 230 244 270 260 240 255 259 261 260 260 280 306 285 276 338 292 217 232 239 247 243 241 251
205 204 204 202 202 199 214 209 205 216 217 218 224 223 227 231 229 222 227 245 225 231 243 249 253 255 241 249 253 253 268 282 293 294 286 283 267 254 244 250 247 246 243
205 204 205 202 202 201 204 216 209 209 219 221 224 228 233 229 222 232 234 242 249 250 252 258 260 258 255 261 261 252 249 244 250 262 273 279 268 255 234 258 252 249 241
208 206 208 208 207 209 210 206 211 206 213 223 228 226 235 225 226 234 245 247 256 261 265 271 270 264 260 259 257 260 260 268 266 255 259 265 255 245 230 245 245 245 245
204 210 211 207 214 211 212 208 216 218 215 217 220 224 226 232 238 231 245 258 256 261 267 268 265 260 269 273 268 268 276 265 265 260 260 273 263 226 226 239 246 253 239
201 207 211 210 212 217 211 208 213 211 214 218 221 224 224 234 243 245 245 254 251 255 268 269 268 271 268 263 265 265 261 261 263 272 274 261 262 270 262 243 247 230 246
212 212 208 206 210 212 211 207 207 209 213 213 217 220 225 231 243 247 245 239 248 256 259 265 269 273 292 287 291 286 272 268 261 258 266 265 272 268 266 256 251 247 245
218 210 201 202 208 208 205 210 214 216 217 217 218 222 225 227 233 232 242 239 245 257 264 272 271 276 286 287 288 280 273 271 268 265 253 255 257 264 262 261 256 254 254
226 221 211 200 201 204 205 205 208 212 216 219 219 222 223 222 235 240 241 242 248 247 262 275 284 286 284 280 287 289 285 282 280 279 279 265 262 262 258 260 259 252 252
233 227 222 216 202 202 204 203 205 204 210 213 215 217 221 218 237 245 243 237 252 257 270 276 282 274 273 276 284 290 285 281 285 285 283 282 272 263 260 255 252 256 247
241 235 226 222 218 207 204 202 202 205 211 211 213 212 194 201 232 230 205 206 245 268 277 290 307 297 300 298 298 283 274 280 282 282 280 275 272 267 251 249 249 238 244
306 279 244 227 223 220 209 203 204 205 210 206 208 195 203 196 210 201 194 199 212 253 290 302 300 296 307 309 304 306 304 292 284 278 272 266 265 267 275 272 256 253 247
291 279 267 245 232 229 217 210 206 207 214 214 202 209 209 208 207 196 187 192 198 253 273 299 332 336 339 329 334 319 305 282 280 266 263 263 265 266 274 272 261 256 261
294 278 266 254 243 233 227 219 215 211 212 210 214 218 207 202 197 194 191 194 201 248 294 310 333 341 357 337 328 327 325 320 314 283 273 278 272 275 265 271 266 259 257
292 289 294 285 265 265 242 243 214 260 219 222 222 216 211 201 202 193 190 196 201 218 218 246 12 5 13 349 333 337 338 333 329 336 332 333 306 292 294 285 277 265 241
277 274 252 247 258 264 277 250 295 202 223 217 201 196 217 219 187 188 194 190 206 225 206 229 31 23 15 350 340 340 343 339 330 335 340 337 336 336 329 310 304 274 265
259 268 276 234 262 231 219 229 218 244 230 201 195 196 212 187 176 180 177 176 192 231 244 174 46 26 9 347 340 348 342 337 337 324 350 355 353 347 338 334 332 318 304
251 247 258 252 226 247 243 231 232 209 191 186 191 177 184 176 177 178 178 189 204 226 252 208 72 41 7 347 335 358 4 357 354 347 358 356 357 358 355 349 350 343 336
243 239 234 237 246 249 213 236 214 189 187 190 189 190 184 185 185 185 195 218 252 223 216 230 129 355 23 338 21 357 7 7 3 10 7 16 13 4 8 12 16 20 358
236 240 255 246 234 235 218 219 223 229 205 208 197 194 183 186 189 199 213 228 242 235 193 230 146 292 296 314 303 254 223 14 32 3 35 41 30 25 28 27 26 23 21
231 232 212 231 241 216 211 210 218 232 215 205 201 193 186 185 196 204 205 212 223 224 196 224 132 242 226 243 298 325 355 359 3 14 2 48 53 39 17 8 28 23 26
227 232 202 215 232 192 203 215 211 209 203 199 194 190 190 193 207 213 208 209 200 221 206 192 228 218 68 19 325 348 343 19 5 5 1 359 12 1 352 346 319 49 8
232 231 229 205 223 205 208 224 201 196 201 203 185 180 183 197 223 245 214 204 211 206 192 207 204 210 168 207 267 324 323 10 351 350 352 343 346 7 328 336 329 338 336
231 235 238 206 211 218 213 214 194 183 193 192 204 173 191 199 206 226 227 213 198 203 196 199 214 186 121 237 37 49 222 245 294 316 323 321 317 326 325 317 320 326 311
240 247 224 205 218 211 201 189 189 197 196 200 209 193 193 196 206 219 190 208 183 198 188 137 89 83 105 205 279 304 305 296 297 297 297 294 298 307 304 305 316 326 324
230 248 213 197 201 188 185 186 189 192 212 229 204 209 216 206 183 172 176 173 162 105 98 87 82 100 109 301 308 316 320 330 331 332 327 315 303 301 303 312 317 316 319
Height
779 782 786 792 796 799 799 803 805 806 808 811 814 816 817 818 818 818 819 818 818 820 821 821 820 821 822 821 821 821 819 817 815 814 813 814 817 818 818 818 818 819 817
774 778 782 787 790 793 797 799 802 805 808 810 813 814 815 815 815 817 817 816 817 818 818 819 818 818 818 818 817 816 816 815 814 813 813 813 813 811 812 815 816 816 816
773 776 779 782 785 787 792 794 797 802 805 807 808 810 811 812 813 814 814 814 815 815 815 815 815 815 815 815 814 813 812 811 811 812 811 810 809 810 810 811 812 813 813
769 772 775 779 781 783 786 790 793 796 800 803 805 807 808 810 810 811 812 813 814 814 813 813 813 813 813 814 813 812 811 810 809 808 807 805 804 806 806 807 807 808 808
768 769 771 775 778 780 783 786 790 793 795 799 802 803 804 806 806 807 809 809 809 810 810 809 808 808 809 810 811 810 809 808 807 805 803 801 800 801 801 801 801 801 800
764 766 769 772 775 777 780 781 785 787 790 793 796 798 800 800 801 802 804 805 805 805 805 805 804 804 802 802 802 802 803 804 803 803 798 794 794 795 796 795 794 795 796
760 762 765 768 771 773 776 777 779 781 784 786 789 792 793 795 796 797 799 800 801 801 801 801 800 798 796 796 797 797 797 798 798 798 796 793 791 791 791 790 790 791 790
757 758 759 763 766 769 771 773 775 778 780 783 785 788 790 790 790 791 793 795 797 798 798 797 797 796 795 794 793 792 791 790 790 788 786 784 786 786 786 786 786 785 786
754 756 757 757 759 763 765 766 769 773 776 778 780 783 785 788 787 787 789 792 792 791 792 793 794 794 792 789 788 788 786 784 783 781 780 778 778 778 779 781 780 781 779
749 750 752 753 754 756 758 760 764 767 770 773 776 778 781 782 780 784 786 788 788 787 788 788 789 789 787 785 784 784 782 780 778 774 771 770 771 771 772 771 773 775 774
743 743 745 748 752 751 753 756 760 763 765 768 770 773 777 776 776 778 780 783 786 786 784 783 783 783 783 782 779 778 776 775 773 771 769 766 763 762 761 763 763 765 766
744 742 743 744 745 746 748 750 753 756 760 762 765 768 771 773 774 776 778 780 781 783 784 782 781 778 778 776 774 772 772 770 769 766 763 759 758 756 754 756 758 759 759
745 742 739 740 740 742 743 745 748 752 754 758 761 766 768 773 775 775 777 778 779 780 780 779 777 775 772 773 770 768 766 765 763 762 757 754 753 752 751 752 753 754 754
743 739 738 736 735 737 738 738 741 743 749 754 758 761 763 768 771 773 773 775 777 777 777 775 774 773 769 770 769 766 764 762 759 755 753 750 749 749 748 748 748 750 750
740 738 735 734 733 733 731 732 736 742 745 750 752 755 759 764 765 769 771 773 775 775 774 775 771 771 767 770 769 764 760 759 757 753 752 747 745 745 746 746 745 746 747
737 736 732 733 732 731 733 735 734 738 744 745 747 749 754 759 760 765 768 770 774 776 774 773 769 768 767 771 770 764 760 759 758 754 751 749 747 745 745 744 743 744 745
733 733 730 730 728 727 731 736 740 741 743 747 748 747 755 758 761 764 768 769 772 775 772 767 765 765 767 772 771 766 761 758 757 756 753 750 748 747 746 744 743 744 743
728 727 728 725 726 725 726 730 733 740 743 745 748 751 755 758 760 764 766 768 769 770 769 764 761 761 765 768 769 765 763 762 759 757 753 750 749 748 747 746 745 745 744
721 720 720 721 722 722 727 729 731 734 739 744 749 751 753 756 760 762 765 766 763 760 761 761 759 761 762 764 765 767 764 762 761 758 754 751 749 750 749 747 746 746 745
713 715 715 715 717 722 725 727 729 731 733 737 742 746 750 755 758 760 762 763 761 758 757 758 757 761 761 762 762 762 761 761 759 757 756 752 752 751 750 749 748 746 746
703 705 708 712 714 717 720 723 726 727 728 730 736 740 745 750 752 754 756 755 756 755 755 756 756 759 760 760 762 759 757 758 757 753 754 750 749 749 751 750 747 747 746
695 695 697 703 707 710 715 719 721 723 726 729 732 736 741 745 745 746 748 747 750 752 751 755 756 755 756 758 760 759 758 757 759 756 755 752 747 747 747 745 744 745 743
689 690 690 691 699 703 708 711 713 718 721 724 727 732 736 740 741 740 740 742 745 747 749 753 753 753 754 758 759 759 759 757 760 759 755 754 749 749 749 745 743 740 739
683 681 682 684 693 700 704 705 709 713 717 721 723 727 732 733 735 735 735 736 740 743 746 749 750 750 753 756 756 755 755 757 756 758 756 753 750 748 747 745 742 740 737
679 675 677 682 689 695 699 704 708 713 715 719 719 720 721 723 726 727 730 734 737 742 743 745 748 749 750 753 753 753 754 753 754 754 754 752 751 749 747 744 742 740 737
675 672 671 681 687 692 696 702 706 710 711 711 711 713 716 718 721 725 729 732 736 741 744 746 747 748 751 751 752 752 751 751 751 750 750 749 749 748 746 743 742 741 739